Location: Newark
(38.1089°N, 103.8675°W)
Time: 16:23:33
(UTC+00:00)

LightSail 2 - Visible Passes

Search period start: 07 December 2019 00:00
Search period end: 17 December 2019 00:00
Orbit: 696 x 730 km, 24.0° (Epoch: 06 December)

Date Brightness Start Highest point End Pass type
(mag) Time Alt. Az. Time Alt. Az. Time Alt. Az.
07 Dec 7.5 00:43:54 10° SW 00:47:03 16° S 00:50:10 10° SE visible
07 Dec 7.8 02:30:19 10° SSW 02:31:13 11° SSW 02:31:13 11° SSW visible
08 Dec 7.6 01:31:33 10° SW 01:33:55 13° S 01:36:17 10° SSE visible
09 Dec 7.6 00:33:12 10° SW 00:36:04 15° S 00:38:54 10° SSE visible
10 Dec 8.0 01:22:43 10° SSW 01:22:52 10° SSW 01:23:01 10° SSW visible
11 Dec 7.8 00:22:57 10° SW 00:25:01 12° SSW 00:27:05 10° S visible
